Location: Foligno
(42.9600°N, 12.7050°E)
Time: 10:17:27
(UTC+02:00)

ISS - Pass Details

Date: 11 May 2021
Orbit: 417 x 422 km, 51.6° (Epoch: 15 May)

Event Time Altitude Azimuth Distance (km) Brightness Sun altitude
Exits shadow 02:04:21 21° 0° (N) 1,015 -1.1 -27.7°
Drops below altitude 10° 02:06:34 10° 41° (NE) 1,505 -0.1 -27.6°
Sets 02:09:01 0° 58° (ENE) 2,371 0.8 -27.4°
